sat.trackr.live / text

‹ back to catalog

STARLINK-2391

NORAD 47810 · 2021-018Z

PAYLOAD ACTIVE UNKNOWN

§ Identity

Operator
Country
US
Launch date
2021-03-11
Launch site
AFETR
Launch vehicle
Mass (kg)
RCS (m²)

Purposes: comms

External: N2YO · Heavens-Above · Gunter

§ Orbital elements

Epoch: 2026-09-19T21:08:47.364000Z

Period
94.01 min
Inclination
53.1608°
Eccentricity
0.0001136
Mean motion
15.31713597 rev/d
Perigee alt
469.9 km
Apogee alt
471.5 km
Semi-major
6,848.8 km
B*
1.9146e-5
RAAN
71.9815°
Arg perigee
81.9866°
Mean anomaly
278.1265°
Rev number
30,635

§ Raw data

STARLINK-23911 47810U 21018Z   26262.88110375  .00000229  00000+0  19146-4 0  99902 47810  53.1608  71.9815 0001136  81.9866 278.1265 15.31713597306355

JSON: /api/v1/satellites/47810 · /tle

For live sub-satellite position, see the globe view (requires WebGL).

§ Visibility from observer

Set your observer location to see the next 7 days of passes ≥ 10°. The values pass through the URL so the page stays shareable.

No JS? Fill the form by hand. The geolocation button needs JavaScript.